Location: Newark
(48.1500°N, 13.1167°E)
Time: 17:25:09
(UTC+00:00)

XW-2D - Pass Details

Date: 06 December 2021
Orbit: 502 x 522 km, 97.5° (Epoch: 17 January)

Event Time Altitude Azimuth Distance (km) Brightness Sun altitude
Rises 17:34:52 0° 219° (SW) 2,619 ? -22.5°
Reaches altitude 10° 17:38:41 10° 260° (W) 1,747 ? -23.1°
Maximum altitude 17:39:30 11° 272° (W) 1,714 ? -23.3°
Drops below altitude 10° 17:40:20 10° 285° (WNW) 1,753 ? -23.4°
Sets 17:44:12 0° 326° (NW) 2,656 ? -24.0°
